Home > Weather > Jaisalmer > Past weeks

Flag for India Past Weather in Jaisalmer, Rajasthan, India — Yesterday and Last 2 Weeks

Now
102 °F

Partly sunny.


Feels Like: 117 °F
Forecast: 84 / 101 °F
Wind: 14 mph from Southeast

Location: Sukkur

Current Time: Jul 30, 2016 at 8:33:52 PM

Latest Report: Jul 30, 2016 at 7:30 PM


Visibility: 2 mi

Pressure: 29.39 "Hg

Humidity: 42%

Dew Point: 75 °F

Location of JaisalmerLocation

Past Weather in Jaisalmer — Graph

°F

Jaisalmer Temperature Yesterday

Maximum temperature yesterday: 106 °F (at 2:30 PM)
Minimum temperature yesterday: 84 °F (at 6:30 AM)
Average temperature yesterday: 96 °F

High & Low Weather Summary for the Past Weeks

 TemperatureHumidityPressure
High109 °F (Jul 20, 4:30 PM)89% (Jul 22, 6:30 AM)29.59 "Hg (Jul 22, 6:30 AM)
Low82 °F (Jul 19, 7:00 AM)32% (Jul 25, 12:30 PM)29.30 "Hg (Jul 22, 6:30 PM)
Average97 °F56%29.44 "Hg
* Reported Jul 15 7:30 PM — Jul 30 7:30 PM, Jaisalmer, Weather by CustomWeather, © 2016

Note: Actual official high and low records may vary slightly from our data, if they occured in-between our weather recording intervals... More about our weather records

Advertising

Jaisalmer Weather History for the Previous 24 Hours

Scroll right to see more
 ConditionsComfort  
Time TempWeatherWind HumidityBarometerVisibility
7:30 PM
Sat, Jul 30
102 °FPartly sunny.14 mph42%29.39 "Hg2 mi
6:30 PM104 °FPartly sunny.14 mph38%29.36 "Hg2 mi
5:30 PM108 °FScattered clouds.14 mph34%29.36 "Hg2 mi
4:30 PM108 °FScattered clouds.14 mph34%29.39 "Hg2 mi
3:30 PM106 °FScattered clouds.14 mph38%29.39 "Hg2 mi
2:30 PM104 °FHaze.14 mph40%29.42 "Hg2 mi
1:30 PM102 °FHaze.14 mph42%29.45 "Hg2 mi
12:30 PM99 °FHaze.12 mph47%29.45 "Hg3 mi
11:30 AM95 °FHaze.12 mph53%29.45 "Hg3 mi
10:30 AM93 °FScattered clouds.7 mph56%29.45 "Hg3 mi
9:30 AM91 °FHaze.12 mph63%29.45 "Hg3 mi
8:30 AM88 °FHaze.12 mph70%29.42 "Hg2 mi
7:30 AM88 °FHaze.12 mph70%29.42 "Hg2 mi
6:30 AM88 °FHaze.7 mph70%29.42 "Hg2 mi
4:30 AM90 °FHaze.5 mph75%29.39 "Hg2 mi
1:30 AM95 °FHaze.5 mph63%29.42 "Hg2 mi
12:30 AM95 °FHaze.5 mph67%29.45 "Hg2 mi
11:30 PM
Fri, Jul 29
95 °FHaze.No wind67%29.45 "Hg2 mi
10:30 PM97 °FHaze.No wind56%29.42 "Hg2 mi
8:30 PM100 °FHaze.7 mph50%29.39 "Hg2 mi
Weather by CustomWeather, © 2016

See weather overviewHow to use our weather pages